SCP
0 0 0 0 0 0 0 0 0 0 0 0 0 0 0 0 0 0 0 0 0 1 0 0 0 0 0 0 0 0 0 0 0 0 0 0 0 0 0 0 0 0 0
0 0 0 0 0 0 0 0 0 0 0 0 0 0 0 0 0 0 0 0 0 0 0 0 0 0 0 0 0 0 0 0 0 0 0 0 0 0 0 0 0 0 0
0 0 0 0 0 0 0 0 0 0 0 0 0 0 0 0 0 0 0 0 0 0 0 0 0 0 0 0 0 0 0 0 0 0 0 0 0 0 0 0 0 0 0
0 0 0 0 0 0 0 0 0 0 0 0 0 0 0 0 0 0 0 0 0 0 0 0 0 0 0 0 0 0 0 0 0 0 0 0 0 0 0 0 0 0 0
0 0 0 0 0 0 0 0 0 0 0 0 0 0 0 0 0 0 0 0 0 0 0 0 0 0 0 0 0 0 0 0 0 0 0 0 0 0 0 0 0 0 0
1 0 0 0 0 0 0 0 0 0 0 0 0 0 0 0 0 0 0 0 0 0 0 0 0 0 0 0 0 0 0 0 0 0 0 0 0 0 0 0 0 0 0
1 1 0 1 1 0 0 0 0 0 0 0 0 0 0 0 0 0 0 0 0 0 0 0 0 0 0 0 0 0 0 0 0 0 0 0 0 0 0 0 0 0 0
1 1 1 1 1 0 0 0 0 0 0 0 0 0 0 0 0 0 0 0 0 0 0 0 0 0 0 0 0 0 0 0 0 0 0 0 0 0 0 0 0 0 0
1 1 1 1 1 0 0 0 0 0 0 0 0 0 0 0 0 0 0 0 0 0 0 0 0 0 0 0 0 0 0 0 0 0 0 0 0 0 0 0 0 0 0
1 1 1 1 1 0 0 0 1 1 1 0 0 0 0 0 0 0 0 0 0 0 0 0 0 0 0 0 0 0 0 0 0 0 0 0 0 0 0 0 0 0 0
1 1 1 1 1 1 1 1 1 1 1 0 0 0 0 0 0 0 0 0 0 0 0 0 0 0 0 0 0 0 0 0 0 0 0 0 0 0 1 0 0 0 0
1 1 1 1 1 1 1 1 1 1 0 0 0 0 0 0 0 0 0 0 0 0 0 0 0 0 1 1 0 1 1 0 0 0 0 0 0 1 1 1 1 1 0
1 1 2 2 1 1 1 1 1 1 0 0 0 0 0 0 0 0 0 0 0 0 0 0 0 1 1 1 1 1 1 1 0 0 0 0 0 1 1 1 1 1 1
1 1 1 2 2 2 2 1 1 1 1 0 0 0 0 0 1 1 1 1 0 0 0 0 0 1 1 1 1 1 1 1 0 0 0 0 0 0 1 1 1 1 1
1 1 1 1 2 2 2 2 1 1 1 1 1 1 1 1 1 1 1 1 1 0 0 0 0 0 1 1 1 1 1 1 0 0 0 0 0 0 0 0 1 1 1
1 2 1 1 1 2 2 2 1 1 1 1 1 1 1 1 1 1 1 1 1 1 0 0 0 0 0 1 1 1 1 1 0 0 0 0 0 0 0 0 0 0 0
2 2 1 1 1 1 2 2 2 1 1 1 1 1 1 1 1 1 1 1 1 1 0 0 0 0 0 0 0 1 1 1 1 0 0 0 0 0 0 0 0 0 0
1 1 1 2 1 2 2 2 2 2 1 1 1 1 1 1 1 1 1 1 1 1 0 0 0 0 0 0 0 0 0 0 1 0 0 0 0 0 0 0 0 0 0
1 1 1 2 2 2 2 2 2 2 2 1 1 1 1 1 1 1 1 1 1 1 1 1 0 0 0 0 0 0 0 0 0 1 0 0 0 0 0 0 0 0 0
2 2 2 2 2 2 2 2 2 2 2 1 1 1 1 1 1 1 1 1 1 1 1 1 1 0 0 0 0 0 0 0 0 0 1 0 0 0 0 0 0 0 0
2 2 2 2 2 2 2 2 2 2 2 2 1 1 1 1 1 1 1 1 1 1 1 1 1 1 0 0 0 0 0 0 0 0 0 0 0 0 0 0 0 0 0
2 2 2 2 2 2 1 1 1 2 2 2 2 2 2 1 1 1 1 1 1 1 1 1 1 1 0 0 0 0 0 0 0 0 0 0 0 0 0 0 0 0 0
2 2 2 2 2 1 1 1 1 1 2 2 2 2 2 2 1 1 1 1 1 1 1 0 0 0 0 0 0 0 0 0 0 0 0 0 0 0 0 0 0 0 0
2 2 3 3 2 1 1 1 0 1 1 1 1 2 2 2 1 1 1 1 0 0 0 0 0 0 0 0 0 0 0 0 0 0 0 0 0 0 0 0 0 0 0
2 2 3 3 3 2 2 1 1 1 1 1 1 1 1 1 1 1 1 1 1 0 0 0 0 0 0 0 0 0 0 0 0 0 0 0 0 0 0 0 0 0 0
2 2 2 2 3 3 2 1 1 1 1 1 1 1 1 1 1 1 1 1 1 1 1 0 0 0 0 0 0 0 0 0 0 0 0 0 0 0 0 0 0 0 0
Wind_Speed
4 3 2 2 2 2 2 1 1 1 1 2 2 4 5 5 4 3 3 10 10 9 10 10 10 10 9 9 9 9 9 9 9 8 7 7 7 8 7 7 7 7 6
4 4 3 3 2 2 2 2 2 2 1 2 3 4 5 5 4 4 3 5 10 9 10 10 10 10 9 9 9 9 8 8 8 8 7 7 7 7 7 7 7 6 5
5 4 3 3 3 2 2 2 2 2 2 3 3 4 4 4 5 4 4 2 4 8 9 9 10 10 9 10 9 9 8 8 8 8 7 7 6 6 6 6 6 5 5
6 5 4 3 3 2 2 3 2 2 2 2 2 2 3 3 5 4 4 3 3 3 6 9 9 9 9 9 9 9 9 8 8 8 7 7 7 6 6 6 5 5 5
6 5 4 3 3 2 2 3 2 2 2 2 1 2 2 3 3 5 5 5 4 3 3 6 8 8 9 9 9 9 9 9 8 8 8 8 8 7 6 6 6 5 5
6 4 3 3 4 3 2 2 3 2 2 2 1 1 0 1 2 3 5 5 4 5 4 4 4 5 9 8 8 9 10 10 9 9 9 9 8 7 7 7 6 6 6
6 5 4 3 4 3 4 4 3 2 1 2 2 2 2 1 1 2 3 4 5 5 5 5 3 3 3 7 8 9 10 10 10 9 9 9 9 8 8 7 7 7 7
6 6 5 4 4 4 4 4 3 2 1 2 3 2 2 3 2 1 2 3 4 4 5 6 5 5 4 3 5 9 9 10 10 10 10 9 9 8 8 8 8 8 8
6 5 6 5 5 4 4 4 4 4 3 1 2 4 3 2 2 2 2 3 4 4 4 4 6 6 6 4 4 7 10 9 10 10 10 10 9 9 9 9 9 8 8
6 6 6 6 5 4 4 4 4 3 4 2 1 1 3 4 3 1 2 1 2 4 4 5 5 6 6 4 5 8 10 10 10 10 10 10 10 9 9 9 10 9 9
6 6 6 6 5 4 5 5 4 4 3 3 3 2 1 1 2 3 1 2 1 2 3 4 4 4 5 5 5 7 10 10 10 10 10 10 9 9 9 9 9 9 9
4 6 6 6 6 5 5 5 5 5 4 4 3 3 3 2 2 3 3 2 2 3 3 3 4 4 5 5 8 10 11 11 11 11 10 10 9 9 10 10 10 10 9
4 7 6 5 5 5 5 5 5 4 5 4 4 3 3 3 3 3 3 2 2 2 2 2 3 4 5 5 6 11 11 11 11 11 11 10 10 9 9 9 9 9 9
6 6 7 7 6 6 6 5 4 4 4 4 5 4 3 3 3 3 4 3 1 1 2 3 2 4 4 4 7 10 7 11 12 12 12 11 11 10 10 9 9 9 8
6 7 7 7 7 6 6 5 4 4 4 4 4 4 3 2 2 3 3 4 4 2 3 4 3 3 3 4 6 6 5 9 12 12 12 12 12 11 11 11 10 10 10
6 7 8 7 7 7 6 5 4 4 5 4 3 4 3 2 2 2 2 2 3 4 3 4 4 3 3 5 6 6 6 10 12 12 13 13 13 13 13 12 12 11 11
7 7 7 7 7 7 6 6 5 5 5 5 4 4 4 3 2 2 2 2 2 3 3 3 2 2 3 4 3 4 5 5 6 12 13 14 14 14 14 13 13 13 12
8 8 7 7 7 7 6 7 7 6 6 6 5 4 4 3 3 3 2 2 2 3 3 3 2 2 3 4 4 5 5 6 5 10 13 14 14 14 14 14 14 13 13
7 7 8 8 7 7 7 7 7 6 7 6 6 5 5 4 4 3 3 2 2 2 2 3 3 2 2 1 2 3 4 4 5 8 11 13 15 15 15 14 14 14 14
7 7 7 7 7 7 7 7 7 6 6 6 6 6 5 6 5 4 3 3 2 2 1 2 2 2 2 1 1 2 3 3 4 5 6 7 10 13 14 15 14 14 14
7 6 6 5 5 5 6 6 6 6 6 6 5 5 6 7 7 5 4 3 3 2 2 1 2 1 2 1 2 3 4 3 3 3 3 3 4 4 6 10 12 14 14
5 5 6 5 5 5 6 8 7 5 5 5 5 5 5 6 6 6 6 6 5 4 3 3 2 3 4 3 2 2 2 2 3 3 2 4 3 4 4 5 9 12 12
5 5 5 4 4 4 7 8 7 5 4 5 5 4 4 4 5 3 4 4 4 5 6 5 5 5 4 4 3 3 3 3 4 3 2 3 2 3 4 4 8 9 10
4 4 4 4 3 4 6 7 6 4 3 4 5 5 5 4 4 4 3 2 2 3 4 4 4 5 4 4 4 4 4 3 3 2 2 3 2 3 3 3 6 8 9
4 3 3 4 4 3 5 6 5 3 2 3 4 4 5 4 5 6 4 3 2 3 3 4 4 3 3 3 2 1 1 1 2 3 1 2 2 2 2 3 4 6 7
3 3 2 2 3 2 3 5 6 3 2 2 2 2 4 5 5 5 4 4 4 4 2 1 2 3 3 3 2 2 3 2 2 3 2 2 2 1 3 3 2 2 3
Wind_Direction
160 163 170 178 183 182 179 182 184 154 117 127 146 141 141 141 144 144 152 157 154 155 156 156 157 159 159 157 155 156 156 155 152 149 150 149 149 147 149 148 147 147 146
164 165 169 179 190 191 182 169 163 148 127 123 132 139 145 148 151 151 155 163 166 166 166 167 169 169 169 169 167 166 165 162 161 159 158 156 156 155 158 160 158 157 158
164 165 165 176 190 181 158 134 127 112 112 109 115 134 145 157 161 165 164 166 173 178 178 179 180 180 180 180 178 177 175 172 169 170 171 169 167 165 173 174 169 166 169
165 162 164 176 179 158 140 134 126 107 99 102 118 133 143 156 168 170 169 175 179 184 190 191 188 188 189 189 187 186 184 181 179 181 181 181 180 180 183 183 179 177 181
165 158 164 172 163 144 142 149 123 132 133 131 142 127 141 159 170 177 180 187 190 189 189 199 197 197 199 198 197 195 193 192 190 192 192 192 191 192 192 189 191 193 196
164 158 164 168 155 142 140 132 131 129 142 150 116 85 120 183 179 183 191 189 193 197 193 198 198 208 208 205 204 203 201 200 199 200 202 202 201 199 199 199 202 205 208
166 164 170 166 162 157 161 152 138 133 128 119 84 29 357 354 201 202 189 183 197 198 191 197 194 200 207 210 210 207 208 209 206 206 206 206 206 204 205 207 210 212 215
175 177 173 171 171 159 159 160 147 137 153 140 129 105 17 350 332 243 199 192 196 191 196 200 196 200 203 196 209 209 210 212 212 211 209 208 209 210 210 214 217 219 221
184 178 174 173 175 166 171 176 165 154 168 195 158 146 150 211 288 315 252 205 191 190 200 197 200 203 201 199 204 211 211 212 215 215 214 212 212 212 215 219 223 223 225
187 180 175 178 180 175 178 185 176 165 155 176 210 189 170 161 158 296 322 290 216 203 204 202 201 201 200 199 206 209 211 210 213 217 218 216 214 213 217 222 227 228 228
191 185 180 181 183 184 187 188 177 176 166 168 179 174 150 137 143 150 245 295 295 243 216 208 201 201 201 201 205 213 211 209 213 217 219 219 216 216 219 224 228 232 235
195 191 187 186 187 186 188 189 187 183 183 178 177 173 167 166 185 169 194 229 246 260 234 214 207 205 203 202 212 210 208 207 210 214 215 215 216 217 219 223 230 236 239
197 199 192 187 190 193 189 182 182 184 184 182 188 192 190 191 178 167 167 200 234 270 268 243 219 207 207 200 213 210 210 207 209 212 213 215 217 218 219 223 229 235 238
198 192 188 191 194 191 190 182 182 190 185 190 199 196 197 206 186 176 171 164 181 289 283 261 245 218 212 200 214 207 211 208 210 213 213 215 216 218 221 224 227 231 234
197 191 188 192 196 193 189 182 190 196 188 195 200 199 203 215 202 190 175 165 162 194 248 253 242 231 211 202 207 203 209 213 213 215 217 219 220 222 224 226 228 230 232
199 189 192 193 194 194 189 183 191 197 190 200 200 201 213 215 209 194 183 180 170 171 217 243 232 228 208 212 206 204 213 214 217 219 222 225 226 227 227 229 231 232 234
192 190 192 193 194 194 190 187 194 191 196 208 211 206 220 213 205 204 191 181 179 169 204 254 244 235 201 212 203 211 217 216 224 226 227 228 230 230 231 232 233 234 236
192 190 190 191 194 195 190 189 199 197 200 208 212 207 217 211 204 203 194 200 202 193 187 225 247 226 218 217 208 212 221 221 223 231 230 232 234 235 235 235 236 237 238
188 184 182 185 193 196 194 198 200 201 205 207 204 204 211 201 211 212 200 201 209 205 187 193 233 234 235 219 204 234 233 233 231 234 230 234 236 237 238 239 239 239 240
183 185 187 190 192 192 195 201 198 201 205 208 206 206 206 202 204 203 204 206 199 195 186 189 224 240 242 239 175 221 249 242 242 243 239 235 236 237 240 241 242 242 242
184 180 180 187 191 191 200 199 197 200 202 210 214 212 212 210 205 202 201 201 191 192 194 199 233 239 247 234 228 222 232 252 260 241 242 245 235 238 241 243 244 245 245
177 173 180 184 189 204 205 201 199 204 201 205 214 218 220 215 209 207 207 201 190 190 200 205 223 227 238 231 229 218 218 236 270 252 208 252 226 239 242 235 241 242 243
174 182 184 180 192 206 200 199 200 201 203 207 208 211 223 212 194 197 215 220 224 220 205 199 214 227 226 223 210 220 217 214 233 247 195 255 250 249 252 253 246 242 241
173 182 180 177 182 201 191 195 199 201 204 210 208 208 209 210 198 189 196 210 240 247 224 208 213 229 230 225 209 213 216 230 256 271 189 238 261 255 263 261 254 247 246
168 168 170 173 175 199 197 195 185 178 196 216 216 204 194 200 212 198 185 204 242 268 256 225 216 232 245 242 207 158 212 217 268 272 220 214 261 272 277 272 273 268 261
147 142 139 160 170 193 200 190 177 167 187 209 209 202 199 200 209 201 192 197 230 252 255 264 260 284 284 292 263 198 205 212 242 273 257 211 256 290 299 286 288 301 292